Weather History for Hamilton, OH

Change the Weather History Date:

Wednesday, August 7, 2013

  Actual Average (KCVG) Record (KCVG)
Temperature  
Mean Temperature 77 °F 76 °F  
Max Temperature 86 °F 85 °F 100 °F (1930)
Min Temperature 68 °F 66 °F 50 °F (2004)
Degree Days  
Heating Degree Days 0 0  
Month to date heating degree days 0  
Since 1 June heating degree days 15  
Since 1 July heating degree days 0  
Cooling Degree Days 12 11  
Month to date cooling degree days 77  
Year to date cooling degree days 736  
Since 1 June cooling degree days 642  
Growing Degree Days 27 (Base 50)    
Moisture  
Dew Point 70 °F    
Average Humidity 82    
Maximum Humidity 96    
Minimum Humidity 63    
Precipitation  
Precipitation 0.00 in 0.11 in 2.75 in (1920)
Month to date precipitation 0.81  
Year to date precipitation 27.19  
Snow  
Snow 0.00 in 0.00 in - ()
Month to date snowfall 0.0  
Since 1 June snowfall 0.0  
Since 1 July snowfall 0.0  
Snow Depth -    
Sea Level Pressure  
Sea Level Pressure 29.93 in    
Wind  
Wind Speed 2 mph (SSW)    
Max Wind Speed 7 mph    
Max Gust Speed -    
Visibility 7 miles    
Events      
T = Trace of Precipitation, MM = Missing Value Source: NWS Daily Summary

Daily Weather History Graph

Daily Weather History Graph

Search for Another Location

Airport:

Trip Planner

Search our weather history database for the weather conditions in past years. The results will help you decide how hot, cold, wet, or windy it might be!

Date:

Astronomy

Aug. 07, 2013 Rise Set
Actual Time 6:43 AM EDT 8:43 PM EDT
Civil Twilight 6:14 AM EDT 9:12 PM EDT
Nautical Twilight 5:38 AM EDT 9:48 PM EDT
Astronomical Twilight 4:59 AM EDT 10:26 PM EDT
Moon 7:30 AM EDT (8/7) 8:50 PM EDT (8/7)
Length of Visible Light 14h 58m
Length of Day
13h 59m
New Moon, 1% of the Moon is Illuminated
Aug 7
New Moon
Aug 14
First Quarter
Aug 20
Full
Aug 28
Last Quarter
Sep 5
New

Hourly Weather History & Observations

Time (EDT) Temp. Heat Index Dew Point Humidity Pressure Visibility Wind Dir Wind Speed Gust Speed Precip Events Conditions
12:53 AM 69.1 °F - 66.0 °F 90% 29.94 in 9.0 mi Calm Calm - N/A   Clear
1:53 AM 68.0 °F - 66.0 °F 93% 29.94 in 5.0 mi Calm Calm - N/A   Partly Cloudy
2:53 AM 68.0 °F - 66.9 °F 96% 29.94 in 6.0 mi Calm Calm - N/A   Partly Cloudy
3:53 AM 69.1 °F - 66.9 °F 93% 29.94 in 7.0 mi Calm Calm - N/A   Clear
4:21 AM 68.0 °F - 66.2 °F 94% 29.95 in 6.0 mi Calm Calm - N/A   Mostly Cloudy
4:53 AM 70.0 °F - 68.0 °F 93% 29.93 in 6.0 mi ESE 3.5 mph - N/A   Overcast
5:53 AM 70.0 °F - 68.0 °F 93% 29.92 in 6.0 mi Calm Calm - N/A   Mostly Cloudy
6:29 AM 69.8 °F - 68.0 °F 94% 29.95 in 5.0 mi Calm Calm - N/A   Overcast
6:53 AM 71.1 °F - 69.1 °F 93% 29.93 in 7.0 mi Calm Calm - N/A   Overcast
7:53 AM 73.0 °F - 70.0 °F 90% 29.93 in 5.0 mi Calm Calm - N/A   Overcast
8:21 AM 73.4 °F - 71.6 °F 94% 29.95 in 2.5 mi SSW 4.6 mph - N/A   Overcast
8:53 AM 73.9 °F - 71.1 °F 91% 29.95 in 3.0 mi Calm Calm - N/A   Overcast
9:26 AM 75.2 °F - 71.6 °F 89% 29.96 in 3.0 mi Calm Calm - N/A   Overcast
9:53 AM 75.9 °F - 72.0 °F 87% 29.95 in 4.0 mi SW 5.8 mph - N/A   Overcast
10:23 AM 78.8 °F - 71.6 °F 78% 29.96 in 5.0 mi Calm Calm - N/A   Haze
10:53 AM 80.1 °F 83.8 °F 72.0 °F 76% 29.95 in 6.0 mi Calm Calm - N/A   Haze
11:24 AM 78.8 °F - 71.6 °F 78% 29.97 in 6.0 mi WSW 5.8 mph - N/A   Haze
11:37 AM 80.6 °F 84.6 °F 71.6 °F 74% 29.97 in 6.0 mi Variable 5.8 mph - N/A   Haze
11:53 AM 82.0 °F 86.3 °F 71.1 °F 69% 29.95 in 7.0 mi SSW 6.9 mph - N/A   Partly Cloudy
12:50 PM 80.6 °F 84.6 °F 71.6 °F 74% 29.95 in 7.0 mi Variable 5.8 mph - N/A   Overcast
12:53 PM 81.0 °F 84.9 °F 71.1 °F 72% 29.94 in 7.0 mi Variable 3.5 mph - N/A   Overcast
1:53 PM 81.0 °F 85.2 °F 72.0 °F 74% 29.94 in 7.0 mi Variable 6.9 mph - N/A   Overcast
2:53 PM 84.0 °F 89.6 °F 72.0 °F 67% 29.92 in 9.0 mi Variable 4.6 mph - N/A   Mostly Cloudy
3:35 PM 84.2 °F 89.6 °F 71.6 °F 66% 29.92 in 10.0 mi South 6.9 mph - N/A   Mostly Cloudy
3:53 PM 84.0 °F 89.0 °F 71.1 °F 65% 29.91 in 10.0 mi Variable 5.8 mph - N/A   Mostly Cloudy
4:53 PM 84.9 °F 90.1 °F 71.1 °F 63% 29.88 in 10.0 mi Variable 3.5 mph - N/A   Partly Cloudy
5:53 PM 86.0 °F 92.2 °F 72.0 °F 63% 29.88 in 10.0 mi Variable 3.5 mph - N/A   Clear
6:53 PM 82.9 °F 88.0 °F 72.0 °F 69% 29.89 in 10.0 mi SSW 3.5 mph - N/A   Partly Cloudy
7:53 PM 82.0 °F 87.4 °F 73.0 °F 74% 29.88 in 10.0 mi SW 3.5 mph - N/A   Clear
8:53 PM 77.0 °F - 73.0 °F 88% 29.88 in 9.0 mi Calm Calm - N/A   Clear
9:53 PM 73.0 °F - 71.1 °F 93% 29.91 in 6.0 mi Calm Calm - 0.00 in   Clear
10:53 PM 73.9 °F - 71.1 °F 91% 29.93 in 8.0 mi Calm Calm - N/A   Clear
11:53 PM 73.9 °F - 71.1 °F 91% 29.92 in 6.0 mi Calm Calm - N/A   Partly Cloudy